Temp
10 11 11 11 10 10 10 10 9 9 10 11 7 7 8 8 8 8 8 9 9 10 9 10 10 11 11 10 10 9 9 8 8 8 8 8 8 7 6 6 5 6 5 5
6 9 10 9 10 10 10 11 11 11 10 7 8 8 7 7 7 7 7 9 10 11 12 11 12 12 10 9 8 7 6 6 6 6 5 5 5 5 5 4 4 4 4 3
6 9 9 6 7 10 10 11 10 9 7 7 6 6 5 5 6 6 5 7 9 10 11 10 11 10 9 8 8 7 5 4 4 4 3 3 3 3 2 2 2 2 2 2
7 8 4 8 11 11 10 10 6 5 5 5 5 5 5 6 6 4 4 8 10 11 10 12 11 10 9 7 5 4 3 2 2 2 1 1 1 1 0 0 0 0 -0 -0
5 6 7 9 8 6 6 6 4 2 4 4 5 5 7 7 6 6 7 8 8 10 11 11 11 10 9 6 4 3 1 1 0 0 -0 -1 -1 -1 -1 -1 -1 -1 -1 -1
4 4 4 8 7 8 9 6 5 2 3 4 4 5 5 6 5 5 9 11 12 13 12 12 11 10 8 5 4 2 1 0 -1 -1 -1 -1 -1 -1 -1 -1 -1 -1 -1 -1
5 4 5 6 7 9 5 4 2 3 4 4 4 4 4 5 8 9 10 11 11 12 13 14 12 10 8 5 4 2 0 -0 -1 -1 -1 -1 -1 -1 -1 -1 -1 -2 -2 -1
6 4 3 6 7 2 3 4 5 4 4 4 4 5 6 7 7 8 9 10 9 10 11 13 12 11 7 5 3 2 -0 -1 -1 -1 -1 -1 -1 -1 -1 -1 -2 -2 -2 -2
4 3 6 7 4 5 5 2 4 4 4 3 5 5 6 6 7 8 8 7 8 8 10 9 11 10 7 4 3 2 -1 -1 -1 -1 -1 -1 -1 -1 -1 -1 -2 -2 -2 -2
4 7 6 6 5 6 6 5 5 5 4 4 4 5 5 5 6 6 6 6 6 7 8 8 8 10 8 5 4 2 -0 -1 -1 -1 -1 -1 -1 -1 -1 -1 -2 -2 -2 -3
1 5 7 7 7 7 5 5 5 5 5 5 5 5 5 5 5 5 6 6 5 5 6 7 7 8 8 6 4 2 1 -1 -1 -1 -1 -1 -1 -1 -1 -1 -1 -2 -2 -3
1 6 4 6 6 7 6 5 4 5 6 6 6 5 5 4 4 4 5 5 4 4 4 5 6 5 6 6 4 3 1 -0 -0 -1 -1 -1 -1 -1 -1 -1 -1 -1 -2 -2
5 6 5 4 4 4 5 5 5 6 5 4 4 4 5 4 4 4 4 4 3 3 2 4 4 3 3 3 5 3 2 -0 -0 -1 -1 -1 -1 -1 -1 -1 -1 -1 -1 -2
6 4 4 4 4 5 5 5 5 6 5 4 4 4 3 3 3 3 3 3 2 1 2 1 1 1 1 0 1 2 1 1 -0 -1 -1 -1 -1 -1 -1 -1 -1 -2 -1 -2
6 6 4 4 5 5 5 5 4 4 4 3 4 3 2 2 1 1 1 2 1 1 1 0 -0 -1 -1 -2 -1 -0 1 -0 -1 -1 -1 -1 -1 -1 -1 -1 -1 -2 -2 -3
6 5 5 4 4 4 4 4 4 4 4 3 2 1 1 0 0 1 0 -0 -0 -0 -0 -1 -1 -2 -1 -2 -1 0 0 -1 -1 -1 -1 -1 -1 -1 -1 -1 -1 -2 -2 -3
4 3 4 4 3 4 4 4 5 3 2 1 0 1 1 0 0 -0 -0 -0 -0 -0 -0 -1 -2 -2 -2 -2 -1 -1 -1 -1 -1 -1 -2 -1 -1 -1 -1 -1 -2 -2 -3 -4
4 4 4 4 4 3 3 4 2 1 -0 -0 -1 -1 -1 -1 -0 -1 -1 -1 -0 -0 -1 -2 -2 -2 -2 -2 -1 -1 -1 -1 -1 -1 -1 -1 -1 -1 -2 -2 -2 -2 -3 -4
5 5 4 4 4 3 3 2 0 0 -0 -1 -1 -2 -1 -1 -1 -1 -0 -1 -1 -0 -1 -1 -1 -2 -2 -2 -2 -1 -2 -2 -1 -1 -1 -1 -2 -2 -2 -2 -2 -3 -3 -4
5 2 2 2 2 1 1 1 1 0 -0 -1 -1 -1 -3 -1 -1 -1 -1 -1 -1 -1 -1 -2 -2 -2 -2 -2 -2 -2 -2 -2 -1 -1 -1 -2 -2 -2 -2 -2 -2 -3 -3 -4
3 2 2 1 1 0 0 -0 -1 -1 -0 0 -0 -1 -1 -1 -0 -1 -2 -1 -1 -1 -2 -2 -2 -2 -2 -2 -2 -2 -1 -1 -1 -1 -1 -1 -1 -2 -2 -2 -3 -3 -3 -4
1 1 0 1 -1 -0 0 0 -0 -0 -0 0 -0 -0 -1 -1 -1 -1 -1 -1 -1 -2 -2 -2 -2 -2 -2 -2 -2 -2 -2 -1 -1 -1 -1 -1 -1 -2 -2 -2 -3 -3 -3 -4
0 -0 0 -0 -1 -1 0 0 -1 -1 -0 -0 -1 -2 -2 -2 -2 -2 -2 -2 -2 -2 -2 -2 -2 -2 -2 -2 -3 -2 -2 -1 -1 -1 -1 -1 -1 -2 -2 -2 -2 -3 -3 -3
-2 -1 -1 -1 -1 -2 -1 -1 -1 -2 -1 -1 -2 -2 -2 -3 -3 -3 -3 -3 -3 -2 -2 -2 -2 -3 -3 -3 -2 -3 -2 -1 -1 -1 -1 -1 -1 -1 -2 -2 -2 -3 -3 -3
-1 -1 -1 -1 -2 -2 -1 -2 -3 -2 -2 -3 -3 -3 -4 -4 -4 -4 -4 -4 -4 -3 -3 -3 -3 -3 -3 -3 -3 -3 -2 -2 -1 -1 -1 -1 -1 -1 -2 -2 -2 -2 -3 -3
-1 -2 -1 -2 -2 -2 -3 -4 -4 -4 -5 -5 -5 -5 -5 -5 -5 -5 -5 -4 -4 -4 -4 -4 -3 -3 -3 -3 -3 -2 -3 -2 -2 -1 -1 -1 -2 -2 -2 -2 -2 -2 -3 -3
-2 -2 -3 -3 -3 -4 -5 -5 -5 -6 -6 -6 -7 -7 -7 -7 -6 -6 -6 -5 -5 -5 -5 -5 -4 -4 -3 -3 -3 -3 -3 -3 -2 -2 -2 -1 -2 -2 -2 -2 -2 -2 -2 -3
Height
763 761 761 760 759 761 763 756 762 752 747 738 756 752 745 741 737 732 724 716 709 701 697 692 691 692 688 685 681 677 674 671 669 668 669 666 666 669 671 674 678 681 681 689
777 768 763 762 758 756 751 747 743 740 740 754 750 751 750 743 734 731 724 713 706 696 690 687 686 685 684 682 678 676 672 668 667 665 663 662 662 664 667 671 673 678 682 686
772 764 762 770 766 751 745 740 740 741 757 758 755 750 747 737 735 730 724 713 703 693 686 684 682 681 680 677 673 670 668 667 665 663 661 660 659 661 664 668 672 676 682 687
769 767 786 751 741 740 742 740 757 765 763 762 755 747 741 734 730 725 719 707 700 689 683 681 680 678 675 674 670 668 668 667 666 664 662 661 661 662 666 669 673 677 683 689
775 769 758 748 747 757 757 760 765 771 761 755 748 740 725 728 725 718 711 703 695 688 677 673 673 673 673 671 670 666 667 666 665 664 663 665 665 667 670 673 677 681 686 692
778 782 777 747 753 750 748 759 759 765 762 754 749 741 732 726 723 715 704 693 686 680 675 672 670 669 669 669 669 667 665 666 666 665 666 667 669 671 675 678 681 686 692 698
761 768 760 753 750 747 765 767 762 757 755 752 749 748 739 728 716 711 705 697 689 683 672 670 669 667 667 667 667 667 666 665 666 667 668 670 673 676 679 683 687 692 697 704
756 767 775 749 749 772 759 751 750 749 750 747 743 737 731 723 715 708 700 695 693 688 678 667 669 666 666 667 668 667 668 667 667 669 670 672 675 680 683 687 691 697 702 708
767 769 748 745 749 745 746 751 748 746 743 742 737 733 731 726 720 713 706 702 697 691 683 678 671 667 668 668 668 668 669 669 669 672 672 675 677 680 686 690 694 700 705 710
759 744 744 743 743 742 742 742 742 740 738 737 736 732 729 725 719 715 709 702 698 693 687 681 679 672 669 668 669 668 670 671 671 673 675 677 679 681 684 690 696 701 706 711
762 747 739 737 738 736 739 740 739 737 736 734 733 731 728 725 722 717 712 705 700 695 692 688 682 677 672 667 669 669 670 671 672 674 677 679 681 683 686 689 692 698 704 709
763 740 744 738 737 734 734 738 736 735 732 731 730 730 729 726 724 720 714 708 703 699 695 690 685 681 676 673 670 669 670 671 672 674 677 679 682 685 689 692 696 700 705 710
742 738 739 739 737 735 734 736 734 733 732 733 732 731 729 727 724 719 714 710 706 701 697 690 687 683 680 677 674 669 668 669 669 672 675 677 680 684 688 696 700 702 707 711
734 737 738 736 737 735 735 734 734 733 733 733 732 731 729 726 724 720 716 712 708 703 698 692 688 682 678 676 673 670 665 664 665 666 670 673 677 681 686 691 697 703 708 712
733 734 736 738 735 735 735 734 734 734 733 733 732 731 729 726 724 720 716 711 707 702 697 692 686 681 676 671 667 662 660 660 662 663 666 670 674 679 684 689 694 700 707 714
733 734 734 736 736 736 736 736 735 733 732 732 732 730 729 727 724 720 716 712 706 701 696 691 685 679 674 669 663 658 655 656 660 663 665 668 672 676 681 685 691 698 704 711
734 737 736 737 737 737 736 734 732 732 732 732 731 730 728 726 723 719 715 710 704 700 696 691 684 678 672 668 663 661 659 659 660 663 665 668 670 674 679 684 690 696 703 708
733 734 735 735 735 734 733 731 732 733 732 732 731 731 728 724 721 717 712 707 702 698 695 690 683 676 672 667 664 661 660 660 661 662 665 667 670 674 678 683 689 696 702 709
732 733 733 732 732 731 731 731 732 731 732 732 731 729 726 723 720 716 710 705 701 697 693 688 682 676 672 668 664 662 661 661 661 663 664 667 670 674 678 683 688 694 700 707
731 734 733 734 733 732 732 731 730 731 731 730 728 726 723 720 717 714 709 705 703 700 694 688 682 677 672 669 666 663 662 661 662 663 665 667 670 674 678 682 687 692 698 704
734 734 733 732 731 731 730 728 727 727 726 725 723 720 719 716 714 712 708 704 702 698 694 688 683 677 672 669 666 664 662 662 663 664 666 668 671 674 677 681 686 690 696 702
733 732 731 730 729 728 727 724 723 722 721 720 719 716 714 712 711 710 708 705 701 697 693 688 684 679 673 668 665 664 663 663 663 664 665 667 670 673 676 680 684 688 693 698
733 732 731 730 729 727 724 722 719 719 719 718 716 715 714 712 710 707 705 703 700 696 692 688 683 679 673 668 664 663 662 662 663 663 665 666 668 671 675 679 682 685 690 695
732 731 730 728 726 725 723 721 719 718 717 715 714 714 713 711 708 707 704 701 698 694 690 686 682 678 673 668 664 662 660 659 660 661 663 664 666 669 672 675 679 683 687 691
729 728 727 725 724 722 721 719 718 717 715 714 713 713 711 710 707 703 700 697 694 691 687 683 680 676 672 668 664 661 658 657 657 658 660 661 663 665 668 671 674 678 682 687
726 725 724 724 723 721 719 718 718 716 715 713 712 711 709 707 704 700 697 694 691 687 684 681 677 674 671 667 663 660 657 656 655 655 656 657 659 661 664 667 670 673 677 682
726 725 724 723 723 721 720 719 717 716 715 713 711 709 707 704 701 697 693 690 687 684 681 677 674 671 668 665 661 657 654 652 652 652 652 653 655 657 659 662 666 669 673 677
Wind_Speed
9 11 11 14 13 9 13 14 13 18 19 20 8 12 15 16 19 21 20 19 15 10 9 9 11 17 15 17 14 10 9 9 13 19 22 23 26 30 32 31 34 37 38 40
11 9 14 19 13 14 16 19 19 19 18 10 12 11 13 17 17 21 21 18 19 14 11 6 7 11 7 13 6 6 10 13 17 20 20 25 26 29 29 30 34 38 38 41
16 8 10 10 5 13 17 18 12 10 4 9 11 12 14 19 18 18 19 19 19 12 8 7 7 2 3 8 11 14 14 13 14 19 21 18 21 23 25 26 30 31 33 35
8 8 11 6 9 12 9 4 8 4 6 8 10 14 17 13 10 13 17 21 14 11 9 18 5 3 1 5 7 9 9 9 9 9 12 16 20 23 24 28 32 33 30 31
5 11 12 17 6 2 5 4 4 1 9 11 14 14 16 13 15 21 21 18 19 26 23 19 11 7 2 2 5 6 6 6 4 9 13 16 17 21 24 27 27 28 33 34
3 3 5 1 2 3 7 8 2 2 4 9 13 11 13 20 19 22 22 21 11 12 24 13 10 9 5 2 4 4 3 4 4 10 14 16 20 22 23 24 26 30 29 31
11 7 4 1 6 8 3 4 3 0 4 9 7 6 17 20 15 18 21 24 27 29 14 19 8 9 8 5 1 2 2 2 6 11 15 19 22 24 26 25 27 27 28 30
2 2 5 10 7 6 7 3 3 4 5 9 12 14 14 16 18 20 19 23 28 26 25 29 7 7 8 6 4 4 4 6 9 14 18 23 25 24 26 27 25 24 25 24
5 4 8 2 6 3 3 3 3 3 10 11 12 12 12 13 16 17 18 22 26 26 23 28 13 7 8 8 5 6 7 8 12 16 20 23 25 26 24 24 23 22 21 21
3 3 5 7 4 5 3 2 6 6 11 12 10 11 12 13 14 15 20 22 26 24 22 23 29 5 6 8 5 8 8 10 14 18 20 21 22 24 26 21 21 21 21 21
5 6 4 4 4 3 3 7 9 10 9 6 5 8 11 11 12 12 18 20 23 21 21 23 22 14 4 10 11 8 9 13 14 15 18 19 19 20 23 24 29 27 25 27
5 5 3 2 7 2 2 5 9 5 6 7 7 8 10 9 12 15 17 18 19 22 22 22 18 21 8 3 9 12 11 13 16 16 17 18 18 17 20 25 28 26 29 30
1 2 0 4 7 6 5 4 5 5 6 5 7 9 10 9 14 17 16 19 20 22 23 21 19 16 16 15 10 12 16 15 18 19 18 18 19 21 18 22 22 23 26 30
5 3 1 5 3 2 5 5 8 8 8 8 9 12 13 13 15 17 17 17 20 20 21 19 17 18 18 20 18 19 19 21 21 21 21 20 20 21 23 23 19 24 25 27
4 1 4 3 2 5 6 6 6 6 5 5 8 7 13 11 13 16 19 19 20 18 20 22 22 21 22 23 21 24 21 20 21 20 21 22 22 22 23 23 20 23 24 26
1 4 3 5 4 6 5 3 3 4 3 4 7 11 13 15 15 15 17 19 18 16 20 22 23 26 23 22 20 14 14 16 20 17 18 21 22 23 22 23 23 23 24 25
4 3 3 4 3 3 4 5 5 3 6 5 9 14 14 14 14 15 17 19 19 16 18 23 25 26 23 20 14 8 8 13 18 19 18 19 21 22 22 24 23 22 22 30
5 3 2 2 4 5 6 2 6 7 5 8 11 11 13 11 10 15 17 21 19 13 18 25 28 24 21 19 13 8 9 12 16 15 18 17 19 21 22 23 24 23 24 30
3 4 5 5 6 4 5 5 6 8 10 11 11 12 13 14 13 17 19 17 14 15 23 28 30 23 20 17 11 8 9 11 12 15 17 19 21 22 23 24 24 24 28 29
3 6 5 4 8 7 5 8 9 9 9 10 11 13 12 11 14 16 22 16 13 19 27 28 26 25 21 17 11 6 9 12 13 13 16 18 19 19 21 23 25 25 28 29
4 5 3 4 5 7 8 11 10 11 10 13 15 15 13 13 11 14 15 8 20 24 26 25 26 24 26 18 12 7 6 13 13 15 17 16 18 19 22 24 25 26 27 28
6 4 6 11 4 8 14 14 13 14 12 13 17 16 16 16 11 12 14 12 22 22 25 23 24 26 25 23 13 8 7 9 13 16 19 19 19 19 21 24 25 26 27 28
8 7 8 7 8 13 18 19 11 5 9 13 14 17 16 13 14 12 8 20 22 22 22 23 26 28 23 23 16 11 9 10 13 15 18 21 21 21 22 22 23 26 27 28
8 9 10 12 12 12 7 12 5 8 7 10 14 13 14 13 15 16 20 24 24 25 23 26 25 25 25 19 16 13 12 12 13 15 18 20 23 23 24 24 26 27 27 29
8 11 12 11 7 7 11 9 10 8 10 12 13 16 18 20 20 23 24 24 26 24 26 24 24 23 22 22 17 15 13 14 14 15 17 20 22 24 26 27 28 28 29 31
9 9 10 11 13 16 10 10 7 10 12 12 15 18 23 25 26 23 26 27 24 25 24 24 25 24 22 21 21 17 15 13 15 17 18 19 21 24 26 27 28 30 31 31
11 12 11 10 10 11 11 7 9 10 13 13 16 22 21 22 23 26 26 25 24 22 25 26 26 25 24 20 21 20 18 16 14 17 18 20 21 23 25 28 29 30 30 31
Wind_Direction
262 282 293 287 285 303 288 283 274 282 288 292 5 333 327 324 320 317 315 312 309 282 256 261 259 276 302 290 280 276 265 264 260 245 240 247 243 239 230 209 197 191 176 176
268 258 265 269 270 266 267 267 271 274 281 8 337 327 310 314 323 312 314 309 302 277 259 211 248 281 342 359 1 320 310 297 289 280 275 242 223 211 202 191 185 180 171 164
267 261 285 276 229 262 266 267 292 281 11 346 314 311 318 314 312 312 312 304 291 277 285 271 269 175 33 345 343 336 329 319 293 268 245 218 196 181 171 165 165 160 156 155
271 295 269 258 228 263 286 27 66 46 325 308 311 311 298 302 318 299 287 302 317 309 292 291 207 156 314 323 353 345 320 308 293 228 189 174 161 156 152 151 150 146 143 144
239 248 271 295 319 29 34 9 65 272 334 325 320 308 322 343 323 312 308 290 284 272 283 290 193 184 223 324 350 9 322 295 257 201 177 165 149 147 147 143 138 138 140 139
231 228 251 351 76 270 305 267 48 162 290 312 322 341 314 324 316 302 314 325 328 325 294 298 206 179 179 177 352 352 312 272 226 191 168 146 142 138 139 137 135 140 141 147
228 245 243 77 348 298 216 248 265 235 281 314 313 290 291 300 308 330 333 342 358 345 326 316 198 171 173 152 96 4 103 163 185 172 160 148 142 142 140 136 136 134 136 145
217 275 293 185 180 145 212 235 271 306 300 325 314 303 314 325 335 334 334 352 354 346 347 343 135 129 150 130 121 82 110 135 166 167 153 153 148 145 145 139 134 136 138 139
179 234 307 129 195 245 123 187 242 274 313 329 304 312 336 335 331 331 341 349 351 344 359 8 1 81 121 149 123 105 123 141 153 159 153 155 148 141 140 144 138 141 140 141
8 236 275 293 135 137 155 221 294 306 336 303 321 337 339 335 336 340 345 345 347 349 353 357 352 22 149 163 156 125 134 154 158 159 157 155 155 152 149 147 143 141 142 143
266 279 287 311 227 207 59 347 316 326 297 342 336 328 341 335 336 332 334 344 349 347 348 347 5 357 206 188 179 152 152 165 166 163 164 161 163 167 161 159 157 153 157 156
236 266 191 281 334 276 79 300 300 290 332 342 350 348 332 336 336 336 337 345 345 344 341 339 359 10 347 221 207 177 168 171 176 174 174 172 163 160 174 166 168 169 166 164
193 55 232 324 322 36 49 337 1 338 44 9 359 350 338 336 333 336 345 348 346 342 339 335 345 352 359 345 302 231 203 195 183 182 178 175 164 162 152 165 167 172 173 171
106 75 353 37 339 338 44 21 1 12 26 7 352 344 350 346 345 339 335 347 345 342 344 337 333 329 330 328 308 284 231 211 196 185 183 176 169 166 163 164 160 157 176 175
32 179 203 277 328 43 32 16 9 359 355 340 336 356 360 349 339 336 338 340 344 342 342 342 335 328 330 328 311 295 253 198 198 190 183 176 167 163 163 163 161 157 160 172
93 71 77 79 52 38 20 356 340 309 317 360 14 5 351 336 328 334 339 340 336 336 343 338 333 328 329 331 328 304 227 199 190 186 179 169 164 162 158 155 152 155 159 161
134 99 64 52 46 332 294 276 322 23 54 27 3 342 333 338 336 341 339 336 333 331 351 345 336 336 341 341 329 287 225 191 183 178 177 176 168 164 160 156 156 157 158 164
120 114 123 254 266 271 287 48 64 40 41 18 359 341 330 329 341 335 333 333 333 336 354 351 348 347 347 341 329 288 227 190 180 173 176 171 167 163 156 153 154 153 156 164
166 203 213 246 288 360 19 48 43 5 352 343 332 321 325 329 337 337 339 324 341 354 347 349 352 348 347 345 327 283 222 193 174 172 167 164 159 162 162 161 160 160 159 163
49 29 20 17 10 17 337 324 321 307 300 309 312 313 312 338 337 338 337 327 3 354 350 346 347 350 347 345 333 286 220 195 184 172 161 160 164 162 163 164 164 162 165 170
7 4 324 323 309 302 299 294 280 282 285 291 298 298 294 304 332 339 330 328 349 347 347 347 348 342 349 341 328 317 229 204 196 184 176 175 169 166 164 166 166 168 172 174
324 321 318 309 257 286 308 305 290 284 286 304 316 308 294 309 313 335 336 342 343 343 346 343 346 344 343 343 325 304 273 226 207 191 182 175 171 169 170 171 174 176 176 176
313 324 329 340 313 310 309 317 332 343 320 320 351 13 355 350 1 354 340 341 336 340 341 341 337 345 342 342 337 304 283 250 228 214 199 191 182 179 178 179 179 175 176 177
359 348 335 335 341 342 334 324 341 325 350 18 7 5 4 347 337 340 333 335 333 332 331 335 339 339 342 334 331 318 298 268 240 226 219 210 199 191 188 186 181 181 180 181
306 311 314 318 318 303 305 320 342 338 357 9 3 354 349 343 335 329 330 329 330 328 328 333 332 338 335 332 322 322 304 282 259 243 230 218 208 200 193 191 186 184 184 187
291 306 303 325 322 316 357 14 346 12 8 354 343 341 334 329 325 324 327 325 324 326 329 331 332 328 332 327 323 313 312 293 275 252 237 230 219 208 201 195 188 188 189 191
0 356 354 344 345 356 351 5 8 354 347 342 326 322 322 323 322 320 318 317 322 328 327 328 327 327 323 322 320 312 308 300 280 265 248 233 223 214 205 200 195 191 191 193